Location: Alfortville
(48.8058°N, 2.4204°E)
Time: 13:49:43
(UTC+00:00)

BEESAT 3 - Visible Passes

Search period start: 21 March 2023 00:00
Search period end: 31 March 2023 00:00
Orbit: 414 x 441 km, 64.9° (Epoch: 21 March)

Date Brightness Start Highest point End Pass type
(mag) Time Alt. Az. Time Alt. Az. Time Alt. Az.
21 Mar ? 03:38:19 10° SE 03:39:17 11° ESE 03:40:14 10° E visible
21 Mar ? 05:11:02 10° SW 05:14:29 77° NW 05:17:59 10° NE visible
22 Mar ? 04:28:03 14° SSW 04:30:52 55° SE 04:34:17 10° NE visible
23 Mar ? 03:45:53 22° SSE 03:47:11 29° ESE 03:50:14 10° ENE visible
24 Mar ? 03:03:28 16° ESE 03:03:28 16° ESE 03:05:36 10° ENE visible
24 Mar ? 04:36:36 19° WSW 04:38:49 52° NW 04:42:13 10° NNE visible
25 Mar ? 03:53:56 52° SSW 03:54:40 82° SE 03:58:08 10° NE visible
26 Mar ? 03:11:02 37° E 03:11:02 37° E 03:13:45 10° NE visible
26 Mar ? 04:44:10 14° W 04:46:19 24° NW 04:49:12 10° NNE visible
27 Mar ? 02:27:55 15° ENE 02:27:55 15° ENE 02:28:55 10° ENE visible
27 Mar ? 04:01:03 34° WNW 04:01:43 38° NW 04:04:59 10° NNE visible
28 Mar ? 03:17:43 53° NNE 03:17:43 53° NNE 03:20:30 10° NE visible
28 Mar ? 04:51:35 10° WNW 04:53:22 13° NNW 04:55:09 10° N visible
29 Mar ? 02:34:12 24° NE 02:34:12 24° NE 02:35:44 10° NE visible
29 Mar ? 04:07:17 17° WNW 04:08:19 19° NW 04:10:53 10° NNE visible
30 Mar ? 01:50:29 11° ENE 01:50:29 11° ENE 01:50:35 10° ENE visible
30 Mar ? 03:23:34 29° NNW 03:23:34 29° NNW 03:26:17 10° NNE visible
